Time,TemperatureF,DewpointF,PressureIn,WindDirection,WindDirectionDegrees,WindSpeedMPH,WindSpeedGustMPH,Humidity,HourlyPrecipIn,Conditions,Clouds,dailyrainin,SoftwareType,DateUTC
2013-03-04 00:03:00,22.1,19.0,29.89,West,278,10.0,13.0,89,0.00,,,0.00,weatherlink.com 1.10,2013-03-04 05:03:00,
2013-03-04 00:18:00,22.2,20.0,29.89,WSW,258,12.0,14.0,89,0.00,,,0.00,weatherlink.com 1.10,2013-03-04 05:18:00,
2013-03-04 00:33:00,22.2,19.0,29.89,West,280,9.0,14.0,88,0.00,,,0.00,weatherlink.com 1.10,2013-03-04 05:33:00,
2013-03-04 00:48:00,22.2,19.0,29.89,WNW,289,7.0,16.0,88,0.00,,,0.00,weatherlink.com 1.10,2013-03-04 05:48:00,
2013-03-04 01:03:00,22.2,19.0,29.88,West,271,11.0,16.0,86,0.00,,,0.00,weatherlink.com 1.10,2013-03-04 06:03:00,
2013-03-04 01:18:00,22.2,19.0,29.89,WNW,293,9.0,14.0,86,0.00,,,0.00,weatherlink.com 1.10,2013-03-04 06:18:00,
2013-03-04 01:33:00,22.1,18.0,29.89,WNW,290,13.0,18.0,85,0.00,,,0.00,weatherlink.com 1.10,2013-03-04 06:33:00,
2013-03-04 01:48:00,21.9,18.0,29.89,WNW,287,18.0,18.0,84,0.00,,,0.00,weatherlink.com 1.10,2013-03-04 06:48:00,
2013-03-04 02:03:00,21.8,18.0,29.89,West,276,10.0,16.0,84,0.00,,,0.00,weatherlink.com 1.10,2013-03-04 07:03:00,
2013-03-04 02:18:00,21.8,18.0,29.89,West,268,7.0,16.0,84,0.00,,,0.00,weatherlink.com 1.10,2013-03-04 07:18:00,
2013-03-04 02:33:00,21.9,18.0,29.89,WNW,293,13.0,17.0,84,0.00,,,0.00,weatherlink.com 1.10,2013-03-04 07:33:00,
2013-03-04 02:48:00,22.0,18.0,29.90,West,276,7.0,13.0,84,0.00,,,0.00,weatherlink.com 1.10,2013-03-04 07:48:00,
2013-03-04 03:03:00,22.0,18.0,29.90,West,269,8.0,14.0,83,0.00,,,0.00,weatherlink.com 1.10,2013-03-04 08:03:00,
2013-03-04 03:18:00,22.1,18.0,29.90,WNW,283,7.0,17.0,83,0.00,,,0.00,weatherlink.com 1.10,2013-03-04 08:18:00,
2013-03-04 03:34:00,22.1,18.0,29.90,West,261,11.0,19.0,83,0.00,,,0.00,weatherlink.com 1.10,2013-03-04 08:34:00,
2013-03-04 03:49:00,22.1,18.0,29.90,WNW,287,14.0,20.0,83,0.00,,,0.00,weatherlink.com 1.10,2013-03-04 08:49:00,
2013-03-04 04:04:00,22.0,18.0,29.91,WNW,287,8.0,18.0,83,0.00,,,0.00,weatherlink.com 1.10,2013-03-04 09:04:00,
2013-03-04 04:19:00,21.9,18.0,29.91,West,269,10.0,14.0,84,0.00,,,0.00,weatherlink.com 1.10,2013-03-04 09:19:00,
2013-03-04 04:34:00,21.8,17.0,29.92,WNW,290,14.0,15.0,83,0.00,,,0.00,weatherlink.com 1.10,2013-03-04 09:34:00,
2013-03-04 04:49:00,21.8,17.0,29.92,WNW,285,12.0,20.0,83,0.00,,,0.00,weatherlink.com 1.10,2013-03-04 09:49:00,
2013-03-04 05:04:00,21.8,17.0,29.92,WNW,287,10.0,18.0,82,0.00,,,0.00,weatherlink.com 1.10,2013-03-04 10:04:00,
2013-03-04 05:19:00,21.8,17.0,29.92,WSW,254,11.0,20.0,83,0.00,,,0.00,weatherlink.com 1.10,2013-03-04 10:19:00,
2013-03-04 05:34:00,21.7,18.0,29.93,West,260,12.0,18.0,84,0.00,,,0.00,weatherlink.com 1.10,2013-03-04 10:34:00,
2013-03-04 05:49:00,21.4,18.0,29.93,West,264,9.0,15.0,85,0.00,,,0.00,weatherlink.com 1.10,2013-03-04 10:49:00,
2013-03-04 06:04:00,21.3,18.0,29.93,West,260,9.0,16.0,86,0.00,,,0.00,weatherlink.com 1.10,2013-03-04 11:04:00,
2013-03-04 06:19:00,21.1,18.0,29.94,WNW,284,12.0,16.0,86,0.00,,,0.00,weatherlink.com 1.10,2013-03-04 11:19:00,
2013-03-04 06:34:00,21.1,18.0,29.94,West,270,11.0,15.0,86,0.00,,,0.00,weatherlink.com 1.10,2013-03-04 11:34:00,
2013-03-04 06:49:00,21.1,18.0,29.94,WNW,289,10.0,18.0,86,0.00,,,0.00,weatherlink.com 1.10,2013-03-04 11:49:00,
2013-03-04 07:04:00,21.2,17.0,29.94,WNW,282,14.0,21.0,85,0.00,,,0.00,weatherlink.com 1.10,2013-03-04 12:04:00,
2013-03-04 07:19:00,21.1,17.0,29.95,WNW,290,13.0,22.0,85,0.00,,,0.00,weatherlink.com 1.10,2013-03-04 12:19:00,
2013-03-04 07:34:00,21.0,18.0,29.95,WNW,291,15.0,19.0,86,0.00,,,0.00,weatherlink.com 1.10,2013-03-04 12:34:00,
2013-03-04 07:49:00,20.9,17.0,29.96,WNW,283,11.0,23.0,85,0.00,,,0.00,weatherlink.com 1.10,2013-03-04 12:49:00,
2013-03-04 08:04:00,20.9,17.0,29.96,West,270,10.0,19.0,86,0.00,,,0.00,weatherlink.com 1.10,2013-03-04 13:04:00,
2013-03-04 08:19:00,20.8,17.0,29.95,WNW,287,14.0,18.0,85,0.00,,,0.00,weatherlink.com 1.10,2013-03-04 13:19:00,
2013-03-04 08:34:00,20.9,17.0,29.95,WNW,293,16.0,18.0,83,0.00,,,0.00,weatherlink.com 1.10,2013-03-04 13:34:00,
2013-03-04 08:49:00,21.1,16.0,29.95,West,278,16.0,21.0,82,0.00,,,0.00,weatherlink.com 1.10,2013-03-04 13:49:00,
2013-03-04 09:04:00,21.4,16.0,29.95,WNW,292,12.0,18.0,81,0.00,,,0.00,weatherlink.com 1.10,2013-03-04 14:04:00,
2013-03-04 09:19:00,21.5,16.0,29.95,West,280,14.0,21.0,80,0.00,,,0.00,weatherlink.com 1.10,2013-03-04 14:19:00,
2013-03-04 09:34:00,21.6,16.0,29.96,West,272,9.0,18.0,80,0.00,,,0.00,weatherlink.com 1.10,2013-03-04 14:34:00,
2013-03-04 09:49:00,21.6,17.0,29.96,West,265,13.0,23.0,81,0.00,,,0.00,weatherlink.com 1.10,2013-03-04 14:49:00,
2013-03-04 10:04:00,22.0,17.0,29.96,WNW,283,13.0,19.0,81,0.00,,,0.00,weatherlink.com 1.10,2013-03-04 15:04:00,
2013-03-04 10:19:00,22.3,17.0,29.96,West,268,12.0,21.0,80,0.00,,,0.00,weatherlink.com 1.10,2013-03-04 15:19:00,
2013-03-04 10:34:00,22.5,17.0,29.95,WNW,283,16.0,23.0,80,0.00,,,0.00,weatherlink.com 1.10,2013-03-04 15:34:00,
2013-03-04 10:49:00,22.8,17.0,29.96,WNW,290,12.0,20.0,79,0.00,,,0.00,weatherlink.com 1.10,2013-03-04 15:49:00,
2013-03-04 11:04:00,23.2,17.0,29.96,West,276,14.0,20.0,78,0.00,,,0.00,weatherlink.com 1.10,2013-03-04 16:04:00,
2013-03-04 11:19:00,23.4,17.0,29.96,West,277,16.0,19.0,77,0.00,,,0.00,weatherlink.com 1.10,2013-03-04 16:19:00,
2013-03-04 11:35:00,23.5,17.0,29.96,WNW,293,18.0,20.0,77,0.00,,,0.00,weatherlink.com 1.10,2013-03-04 16:35:00,
2013-03-04 11:50:00,23.7,18.0,29.96,WSW,249,12.0,20.0,78,0.00,,,0.00,weatherlink.com 1.10,2013-03-04 16:50:00,
2013-03-04 12:05:00,23.3,18.0,29.96,WSW,258,15.0,20.0,80,0.00,,,0.00,weatherlink.com 1.10,2013-03-04 17:05:00,
2013-03-04 12:20:00,23.1,18.0,29.96,WNW,282,8.0,22.0,81,0.00,,,0.00,weatherlink.com 1.10,2013-03-04 17:20:00,
2013-03-04 12:35:00,23.5,18.0,29.95,West,281,22.0,22.0,80,0.00,,,0.00,weatherlink.com 1.10,2013-03-04 17:35:00,
2013-03-04 12:50:00,23.8,18.0,29.95,WNW,289,19.0,25.0,79,0.00,,,0.00,weatherlink.com 1.10,2013-03-04 17:50:00,
2013-03-04 13:05:00,23.8,18.0,29.95,West,268,12.0,22.0,79,0.00,,,0.00,weatherlink.com 1.10,2013-03-04 18:05:00,
2013-03-04 13:20:00,24.2,19.0,29.95,West,265,13.0,17.0,79,0.00,,,0.00,weatherlink.com 1.10,2013-03-04 18:20:00,
2013-03-04 13:35:00,24.5,19.0,29.95,WNW,283,17.0,22.0,78,0.00,,,0.00,weatherlink.com 1.10,2013-03-04 18:35:00,
2013-03-04 13:50:00,24.7,18.0,29.95,WNW,288,18.0,22.0,77,0.00,,,0.00,weatherlink.com 1.10,2013-03-04 18:50:00,
2013-03-04 14:05:00,25.1,19.0,29.95,West,270,9.0,23.0,76,0.00,,,0.00,weatherlink.com 1.10,2013-03-04 19:05:00,
2013-03-04 14:20:00,25.3,18.0,29.95,West,276,16.0,26.0,75,0.00,,,0.00,weatherlink.com 1.10,2013-03-04 19:20:00,
2013-03-04 14:35:00,25.6,18.0,29.95,WNW,283,14.0,27.0,74,0.00,,,0.00,weatherlink.com 1.10,2013-03-04 19:35:00,
2013-03-04 14:50:00,26.0,18.0,29.95,WNW,295,13.0,24.0,73,0.00,,,0.00,weatherlink.com 1.10,2013-03-04 19:50:00,
2013-03-04 15:05:00,26.0,18.0,29.95,West,266,16.0,24.0,73,0.00,,,0.00,weatherlink.com 1.10,2013-03-04 20:05:00,
2013-03-04 15:20:00,26.2,18.0,29.95,WNW,288,16.0,25.0,72,0.00,,,0.00,weatherlink.com 1.10,2013-03-04 20:20:00,
2013-03-04 15:35:00,26.2,18.0,29.96,WNW,290,18.0,25.0,71,0.00,,,0.00,weatherlink.com 1.10,2013-03-04 20:35:00,
2013-03-04 15:50:00,26.5,19.0,29.96,WNW,287,10.0,21.0,72,0.00,,,0.00,weatherlink.com 1.10,2013-03-04 20:50:00,
2013-03-04 16:05:00,26.6,19.0,29.96,West,269,13.0,22.0,72,0.00,,,0.00,weatherlink.com 1.10,2013-03-04 21:05:00,
2013-03-04 16:20:00,26.8,19.0,29.96,West,273,11.0,17.0,72,0.00,,,0.00,weatherlink.com 1.10,2013-03-04 21:20:00,
2013-03-04 16:35:00,26.9,19.0,29.96,WNW,293,10.0,18.0,72,0.00,,,0.00,weatherlink.com 1.10,2013-03-04 21:35:00,
2013-03-04 16:50:00,27.1,19.0,29.95,WNW,301,11.0,19.0,72,0.00,,,0.00,weatherlink.com 1.10,2013-03-04 21:50:00,
2013-03-04 17:05:00,27.2,19.0,29.96,WNW,286,13.0,17.0,71,0.00,,,0.00,weatherlink.com 1.10,2013-03-04 22:05:00,
2013-03-04 17:20:00,27.1,19.0,29.97,WNW,286,8.0,15.0,72,0.00,,,0.00,weatherlink.com 1.10,2013-03-04 22:20:00,
2013-03-04 17:35:00,27.2,19.0,29.97,WNW,285,8.0,17.0,72,0.00,,,0.00,weatherlink.com 1.10,2013-03-04 22:35:00,
2013-03-04 17:50:00,27.2,20.0,29.98,West,275,18.0,18.0,73,0.00,,,0.00,weatherlink.com 1.10,2013-03-04 22:50:00,
2013-03-04 18:05:00,27.2,20.0,29.98,WNW,286,17.0,18.0,73,0.00,,,0.00,weatherlink.com 1.10,2013-03-04 23:05:00,
2013-03-04 18:20:00,27.2,20.0,29.99,WNW,295,13.0,16.0,74,0.00,,,0.00,weatherlink.com 1.10,2013-03-04 23:20:00,
2013-03-04 18:35:00,27.2,20.0,30.00,West,276,11.0,18.0,74,0.00,,,0.00,weatherlink.com 1.10,2013-03-04 23:35:00,
2013-03-04 18:50:00,27.2,20.0,30.00,WNW,292,13.0,20.0,75,0.00,,,0.00,weatherlink.com 1.10,2013-03-04 23:50:00,
2013-03-04 19:05:00,27.2,20.0,29.99,WNW,296,9.0,16.0,75,0.00,,,0.00,weatherlink.com 1.10,2013-03-05 00:05:00,
2013-03-04 19:20:00,27.3,20.0,29.99,WNW,289,13.0,15.0,75,0.00,,,0.00,weatherlink.com 1.10,2013-03-05 00:20:00,
2013-03-04 19:35:00,27.3,21.0,29.99,West,277,11.0,16.0,76,0.00,,,0.00,weatherlink.com 1.10,2013-03-05 00:35:00,
2013-03-04 19:50:00,27.4,21.0,30.00,WNW,293,10.0,15.0,76,0.00,,,0.00,weatherlink.com 1.10,2013-03-05 00:50:00,
2013-03-04 20:05:00,27.4,21.0,30.00,NW,308,10.0,14.0,77,0.00,,,0.00,weatherlink.com 1.10,2013-03-05 01:05:00,
2013-03-04 20:20:00,27.5,21.0,30.01,NW,310,11.0,14.0,77,0.00,,,0.00,weatherlink.com 1.10,2013-03-05 01:20:00,
2013-03-04 20:35:00,27.5,22.0,30.01,NW,310,9.0,13.0,78,0.00,,,0.00,weatherlink.com 1.10,2013-03-05 01:35:00,
2013-03-04 20:51:00,27.6,22.0,30.01,WNW,301,13.0,17.0,78,0.00,,,0.00,weatherlink.com 1.10,2013-03-05 01:51:00,
2013-03-04 21:05:00,27.6,22.0,30.01,WNW,293,14.0,18.0,78,0.00,,,0.00,weatherlink.com 1.10,2013-03-05 02:05:00,
2013-03-04 21:20:00,27.6,21.0,30.02,WNW,297,9.0,16.0,77,0.00,,,0.00,weatherlink.com 1.10,2013-03-05 02:20:00,
2013-03-04 21:35:00,27.6,22.0,30.02,NW,320,5.0,14.0,78,0.00,,,0.00,weatherlink.com 1.10,2013-03-05 02:35:00,
2013-03-04 21:50:00,27.5,22.0,30.02,West,279,8.0,12.0,78,0.00,,,0.00,weatherlink.com 1.10,2013-03-05 02:50:00,
2013-03-04 22:05:00,27.3,21.0,30.02,WNW,299,12.0,17.0,77,0.00,,,0.00,weatherlink.com 1.10,2013-03-05 03:05:00,
2013-03-04 22:20:00,27.1,21.0,30.02,NW,309,8.0,18.0,77,0.00,,,0.00,weatherlink.com 1.10,2013-03-05 03:20:00,
2013-03-04 22:35:00,26.9,21.0,30.02,NW,322,5.0,15.0,78,0.00,,,0.00,weatherlink.com 1.10,2013-03-05 03:35:00,
2013-03-04 22:50:00,26.7,21.0,30.02,NW,304,8.0,20.0,78,0.00,,,0.00,weatherlink.com 1.10,2013-03-05 03:50:00,
2013-03-04 23:05:00,26.5,21.0,30.02,WNW,287,10.0,16.0,78,0.00,,,0.00,weatherlink.com 1.10,2013-03-05 04:05:00,
2013-03-04 23:20:00,26.3,21.0,30.02,NW,309,9.0,17.0,79,0.00,,,0.00,weatherlink.com 1.10,2013-03-05 04:20:00,
2013-03-04 23:35:00,26.2,21.0,30.02,WNW,284,7.0,18.0,79,0.00,,,0.00,weatherlink.com 1.10,2013-03-05 04:35:00,
2013-03-04 23:50:00,26.1,21.0,30.03,NW,325,6.0,17.0,80,0.00,,,0.00,weatherlink.com 1.10,2013-03-05 04:50:00,